Time,TemperatureF,DewpointF,PressureIn,WindDirection,WindDirectionDegrees,WindSpeedMPH,WindSpeedGustMPH,Humidity,HourlyPrecipIn,Conditions,Clouds,dailyrainin,SoftwareType,DateUTC
2013-05-08 00:01:00,56.6,53.4,30.00,West,270,0.0,0.0,89,0.00,,---,0.00,VWS V14.01,2013-05-08 05:01:00,
2013-05-08 00:06:00,56.4,53.5,30.00,West,270,0.0,0.0,90,0.00,,---,0.00,VWS V14.01,2013-05-08 05:06:00,
2013-05-08 00:11:00,56.2,53.3,30.00,West,270,0.0,0.0,90,0.00,,---,0.00,VWS V14.01,2013-05-08 05:11:00,
2013-05-08 00:16:00,56.2,53.3,30.00,West,270,0.0,0.0,90,0.00,,---,0.00,VWS V14.01,2013-05-08 05:16:00,
2013-05-08 00:21:00,56.0,53.2,30.00,West,270,0.0,0.0,90,0.00,,---,0.00,VWS V14.01,2013-05-08 05:21:00,
2013-05-08 00:26:00,55.9,53.0,30.00,West,270,0.0,0.0,90,0.00,,---,0.00,VWS V14.01,2013-05-08 05:26:00,
2013-05-08 00:31:00,55.9,53.0,30.00,West,270,0.0,0.0,90,0.00,,---,0.00,VWS V14.01,2013-05-08 05:31:00,
2013-05-08 00:36:00,55.7,52.8,30.00,West,270,0.0,0.0,90,0.00,,---,0.00,VWS V14.01,2013-05-08 05:36:00,
2013-05-08 00:41:00,55.7,52.8,30.00,West,270,0.0,0.0,90,0.00,,---,0.00,VWS V14.01,2013-05-08 05:41:00,
2013-05-08 00:46:00,55.5,52.9,30.00,West,270,0.0,0.0,91,0.00,,---,0.00,VWS V14.01,2013-05-08 05:46:00,
2013-05-08 00:51:00,55.5,52.9,30.00,West,270,0.0,0.0,91,0.00,,---,0.00,VWS V14.01,2013-05-08 05:51:00,
2013-05-08 00:56:00,55.5,52.9,30.00,West,270,0.0,0.0,91,0.00,,---,0.00,VWS V14.01,2013-05-08 05:56:00,
2013-05-08 01:01:00,55.3,52.7,30.00,West,270,0.0,0.0,91,0.00,,---,0.00,VWS V14.01,2013-05-08 06:01:00,
2013-05-08 01:06:00,55.3,52.7,30.00,West,270,0.0,0.0,91,0.00,,---,0.00,VWS V14.01,2013-05-08 06:06:00,
2013-05-08 01:11:00,55.3,52.7,30.00,West,270,0.0,0.0,91,0.00,,---,0.00,VWS V14.01,2013-05-08 06:11:00,
2013-05-08 01:16:00,55.1,52.6,30.00,West,270,0.0,0.0,91,0.00,,---,0.00,VWS V14.01,2013-05-08 06:16:00,
2013-05-08 01:21:00,55.1,52.6,30.00,West,270,0.0,0.0,91,0.00,,---,0.00,VWS V14.01,2013-05-08 06:21:00,
2013-05-08 01:26:00,55.0,52.4,30.00,West,270,0.0,0.0,91,0.00,,---,0.00,VWS V14.01,2013-05-08 06:26:00,
2013-05-08 01:31:00,54.8,52.2,30.00,West,270,0.0,0.0,91,0.00,,---,0.00,VWS V14.01,2013-05-08 06:31:00,
2013-05-08 01:36:00,54.8,52.2,30.00,West,270,0.0,0.0,91,0.00,,---,0.00,VWS V14.01,2013-05-08 06:36:00,
2013-05-08 01:41:00,54.6,52.0,30.00,West,270,0.0,0.0,91,0.00,,---,0.00,VWS V14.01,2013-05-08 06:41:00,
2013-05-08 01:46:00,54.6,52.0,29.97,West,270,0.0,0.0,91,0.00,,---,0.00,VWS V14.01,2013-05-08 06:46:00,
2013-05-08 01:51:00,54.4,52.2,29.97,West,270,0.0,0.0,92,0.00,,---,0.00,VWS V14.01,2013-05-08 06:51:00,
2013-05-08 01:56:00,54.2,52.0,29.97,West,270,0.0,0.0,92,0.00,,---,0.00,VWS V14.01,2013-05-08 06:56:00,
2013-05-08 02:01:00,54.2,51.7,29.97,West,270,0.0,0.0,91,0.00,,---,0.00,VWS V14.01,2013-05-08 07:01:00,
2013-05-08 02:06:00,54.1,51.8,29.97,West,270,0.0,0.0,92,0.00,,---,0.00,VWS V14.01,2013-05-08 07:06:00,
2013-05-08 02:11:00,54.1,51.8,29.97,West,270,0.0,0.0,92,0.00,,---,0.00,VWS V14.01,2013-05-08 07:11:00,
2013-05-08 02:16:00,54.1,51.8,29.97,West,270,0.0,0.0,92,0.00,,---,0.00,VWS V14.01,2013-05-08 07:16:00,
2013-05-08 02:21:00,54.1,51.8,29.97,West,270,0.0,0.0,92,0.00,,---,0.00,VWS V14.01,2013-05-08 07:21:00,
2013-05-08 02:26:00,53.9,51.3,29.97,West,270,0.0,0.0,91,0.00,,---,0.00,VWS V14.01,2013-05-08 07:26:00,
2013-05-08 02:31:00,53.7,51.4,29.97,West,270,0.0,0.0,92,0.00,,---,0.00,VWS V14.01,2013-05-08 07:31:00,
2013-05-08 02:36:00,53.7,51.4,29.97,West,270,0.0,0.0,92,0.00,,---,0.00,VWS V14.01,2013-05-08 07:36:00,
2013-05-08 02:41:00,53.5,51.3,29.97,West,270,0.0,0.0,92,0.00,,---,0.00,VWS V14.01,2013-05-08 07:41:00,
2013-05-08 02:46:00,53.5,51.3,29.97,West,270,0.0,0.0,92,0.00,,---,0.00,VWS V14.01,2013-05-08 07:46:00,
2013-05-08 02:51:00,53.5,51.3,29.97,West,270,0.0,0.0,92,0.00,,---,0.00,VWS V14.01,2013-05-08 07:51:00,
2013-05-08 02:56:00,53.3,51.1,29.97,West,270,0.0,0.0,92,0.00,,---,0.00,VWS V14.01,2013-05-08 07:56:00,
2013-05-08 03:01:00,53.2,50.9,29.97,West,270,0.0,0.0,92,0.00,,---,0.00,VWS V14.01,2013-05-08 08:01:00,
2013-05-08 03:06:00,53.2,50.9,29.97,West,270,0.0,0.0,92,0.00,,---,0.00,VWS V14.01,2013-05-08 08:06:00,
2013-05-08 03:11:00,53.2,50.9,29.97,WSW,248,0.0,0.0,92,0.00,,---,0.00,VWS V14.01,2013-05-08 08:11:00,
2013-05-08 03:16:00,53.2,50.9,29.97,West,270,0.0,0.0,92,0.00,,---,0.00,VWS V14.01,2013-05-08 08:16:00,
2013-05-08 03:21:00,52.8,50.5,29.97,WNW,292,0.0,0.0,92,0.00,,---,0.00,VWS V14.01,2013-05-08 08:21:00,
2013-05-08 03:26:00,52.8,50.5,29.97,NNE,22,0.0,0.0,92,0.00,,---,0.00,VWS V14.01,2013-05-08 08:26:00,
2013-05-08 03:31:00,52.8,50.8,29.97,NNE,22,0.0,0.0,93,0.00,,---,0.00,VWS V14.01,2013-05-08 08:31:00,
2013-05-08 03:36:00,52.8,50.5,29.97,SSW,202,0.0,0.0,92,0.00,,---,0.00,VWS V14.01,2013-05-08 08:36:00,
2013-05-08 03:41:00,52.8,50.5,29.97,SSW,202,0.0,0.0,92,0.00,,---,0.00,VWS V14.01,2013-05-08 08:41:00,
2013-05-08 03:46:00,52.6,50.7,30.00,SSW,202,0.0,0.0,93,0.00,,---,0.00,VWS V14.01,2013-05-08 08:46:00,
2013-05-08 03:51:00,52.6,50.4,30.00,SSW,202,0.0,0.0,92,0.00,,---,0.00,VWS V14.01,2013-05-08 08:51:00,
2013-05-08 03:56:00,52.4,50.2,30.00,SSW,202,0.0,0.0,92,0.00,,---,0.00,VWS V14.01,2013-05-08 08:56:00,
2013-05-08 04:01:00,52.4,50.5,29.97,SSW,202,0.0,0.0,93,0.00,,---,0.00,VWS V14.01,2013-05-08 09:01:00,
2013-05-08 04:06:00,52.3,50.0,29.97,SSW,202,0.0,0.0,92,0.00,,---,0.00,VWS V14.01,2013-05-08 09:06:00,
2013-05-08 04:11:00,52.4,50.5,29.97,SSW,202,0.0,0.0,93,0.00,,---,0.00,VWS V14.01,2013-05-08 09:11:00,
2013-05-08 04:16:00,52.4,50.5,29.97,SSW,202,0.0,0.0,93,0.00,,---,0.00,VWS V14.01,2013-05-08 09:16:00,
2013-05-08 04:21:00,52.3,50.3,29.97,SSW,202,0.0,0.0,93,0.00,,---,0.00,VWS V14.01,2013-05-08 09:21:00,
2013-05-08 04:26:00,52.3,50.3,29.97,SSW,202,0.0,0.0,93,0.00,,---,0.00,VWS V14.01,2013-05-08 09:26:00,
2013-05-08 04:31:00,52.1,50.1,29.97,SSW,202,0.0,0.0,93,0.00,,---,0.00,VWS V14.01,2013-05-08 09:31:00,
2013-05-08 04:36:00,52.1,49.8,29.97,SSE,158,0.0,0.0,92,0.00,,---,0.00,VWS V14.01,2013-05-08 09:36:00,
2013-05-08 04:41:00,51.9,49.7,29.97,ENE,68,0.0,0.0,92,0.00,,---,0.00,VWS V14.01,2013-05-08 09:41:00,
2013-05-08 04:46:00,51.9,49.9,29.97,ENE,68,0.0,0.0,93,0.00,,---,0.00,VWS V14.01,2013-05-08 09:46:00,
2013-05-08 04:51:00,51.9,49.9,29.97,ENE,68,0.0,0.0,93,0.00,,---,0.00,VWS V14.01,2013-05-08 09:51:00,
2013-05-08 04:56:00,51.9,49.9,29.97,ENE,68,0.0,0.0,93,0.00,,---,0.00,VWS V14.01,2013-05-08 09:56:00,
2013-05-08 05:01:00,51.9,49.9,29.97,ENE,68,0.0,0.0,93,0.00,,---,0.00,VWS V14.01,2013-05-08 10:01:00,
2013-05-08 05:06:00,51.9,49.9,29.97,ENE,68,0.0,0.0,93,0.00,,---,0.00,VWS V14.01,2013-05-08 10:06:00,
2013-05-08 05:11:00,51.9,49.9,29.97,ENE,68,0.0,0.0,93,0.00,,---,0.00,VWS V14.01,2013-05-08 10:11:00,
2013-05-08 05:16:00,51.7,49.5,29.97,NW,315,0.0,0.0,92,0.00,,---,0.00,VWS V14.01,2013-05-08 10:16:00,
2013-05-08 05:21:00,51.5,49.6,29.97,NW,315,0.0,0.0,93,0.00,,---,0.00,VWS V14.01,2013-05-08 10:21:00,
2013-05-08 05:26:00,51.4,49.4,29.97,NW,315,0.0,0.0,93,0.00,,---,0.00,VWS V14.01,2013-05-08 10:26:00,
2013-05-08 05:31:00,51.4,49.4,29.97,NW,315,0.0,0.0,93,0.00,,---,0.00,VWS V14.01,2013-05-08 10:31:00,
2013-05-08 05:36:00,51.4,49.4,29.97,North,0,0.0,0.0,93,0.00,,---,0.00,VWS V14.01,2013-05-08 10:36:00,
2013-05-08 05:41:00,51.4,49.4,29.97,North,0,0.0,0.0,93,0.00,,---,0.00,VWS V14.01,2013-05-08 10:41:00,
2013-05-08 05:46:00,51.4,49.4,29.97,North,0,0.0,0.0,93,0.00,,---,0.00,VWS V14.01,2013-05-08 10:46:00,
2013-05-08 05:51:00,51.4,49.4,29.97,NW,315,0.0,0.0,93,0.00,,---,0.00,VWS V14.01,2013-05-08 10:51:00,
2013-05-08 05:56:00,51.2,49.2,29.97,NW,315,0.0,0.0,93,0.00,,---,0.00,VWS V14.01,2013-05-08 10:56:00,
2013-05-08 06:01:00,51.4,49.4,30.00,NW,315,0.0,0.0,93,0.00,,---,0.00,VWS V14.01,2013-05-08 11:01:00,
2013-05-08 06:06:00,51.2,49.2,30.00,NW,315,0.0,0.0,93,0.00,,---,0.00,VWS V14.01,2013-05-08 11:06:00,
2013-05-08 06:11:00,51.2,49.2,30.00,NW,315,0.0,0.0,93,0.00,,---,0.00,VWS V14.01,2013-05-08 11:11:00,
2013-05-08 06:16:00,51.2,49.2,30.00,NW,315,0.0,0.0,93,0.00,,---,0.00,VWS V14.01,2013-05-08 11:16:00,
2013-05-08 06:21:00,51.2,49.2,30.00,NW,315,0.0,0.0,93,0.00,,---,0.00,VWS V14.01,2013-05-08 11:21:00,
2013-05-08 06:26:00,51.2,49.2,30.00,NW,315,0.0,0.0,93,0.00,,---,0.00,VWS V14.01,2013-05-08 11:26:00,
2013-05-08 06:32:00,51.2,49.5,30.00,NW,315,0.0,0.0,94,0.00,,---,0.00,VWS V14.01,2013-05-08 11:32:00,
2013-05-08 06:37:00,51.4,49.7,30.00,NW,315,0.0,0.0,94,0.00,,---,0.00,VWS V14.01,2013-05-08 11:37:00,
2013-05-08 06:41:00,51.4,49.7,30.00,NW,315,0.0,0.0,94,0.00,,---,0.00,VWS V14.01,2013-05-08 11:41:00,
2013-05-08 06:46:00,51.5,49.9,30.00,NW,315,0.0,0.0,94,0.00,,---,0.00,VWS V14.01,2013-05-08 11:46:00,
2013-05-08 06:52:00,51.7,50.0,30.00,NW,315,0.0,0.0,94,0.00,,---,0.00,VWS V14.01,2013-05-08 11:52:00,
2013-05-08 06:57:00,51.7,50.0,30.00,NW,315,0.0,0.0,94,0.00,,---,0.00,VWS V14.01,2013-05-08 11:57:00,
2013-05-08 07:02:00,51.9,50.2,30.03,NW,315,0.0,0.0,94,0.00,,---,0.00,VWS V14.01,2013-05-08 12:02:00,
2013-05-08 07:07:00,52.3,50.6,30.03,NW,315,0.0,0.0,94,0.00,,---,0.00,VWS V14.01,2013-05-08 12:07:00,
2013-05-08 07:12:00,52.6,51.0,30.03,NW,315,0.0,0.0,94,0.00,,---,0.00,VWS V14.01,2013-05-08 12:12:00,
2013-05-08 07:17:00,52.6,51.2,30.00,NW,315,0.0,0.0,95,0.00,,---,0.00,VWS V14.01,2013-05-08 12:17:00,
2013-05-08 07:22:00,53.0,51.3,30.00,NW,315,0.0,0.0,94,0.00,,---,0.00,VWS V14.01,2013-05-08 12:22:00,
2013-05-08 07:27:00,53.3,51.7,30.00,NW,315,0.0,0.0,94,0.00,,---,0.00,VWS V14.01,2013-05-08 12:27:00,
2013-05-08 07:32:00,53.5,52.1,30.00,NW,315,0.0,0.0,95,0.00,,---,0.00,VWS V14.01,2013-05-08 12:32:00,
2013-05-08 07:37:00,54.1,52.7,30.00,NW,315,0.0,0.0,95,0.00,,---,0.00,VWS V14.01,2013-05-08 12:37:00,
2013-05-08 07:42:00,54.4,53.0,30.00,SSW,202,0.0,0.0,95,0.00,,---,0.00,VWS V14.01,2013-05-08 12:42:00,
2013-05-08 07:47:00,54.8,53.4,30.03,SSE,158,0.0,0.0,95,0.00,,---,0.00,VWS V14.01,2013-05-08 12:47:00,
2013-05-08 07:52:00,55.3,53.9,30.03,SSE,158,0.0,0.0,95,0.00,,---,0.00,VWS V14.01,2013-05-08 12:52:00,
2013-05-08 07:57:00,55.9,54.5,30.03,SE,135,0.0,0.0,95,0.00,,---,0.00,VWS V14.01,2013-05-08 12:57:00,
2013-05-08 08:02:00,56.2,55.1,30.03,SE,135,0.0,0.0,96,0.00,,---,0.00,VWS V14.01,2013-05-08 13:02:00,
2013-05-08 08:07:00,56.8,55.3,30.03,SE,135,0.0,0.0,95,0.00,,---,0.00,VWS V14.01,2013-05-08 13:07:00,
2013-05-08 08:12:00,57.1,56.0,30.03,SE,135,0.0,0.0,96,0.00,,---,0.00,VWS V14.01,2013-05-08 13:12:00,
2013-05-08 08:17:00,57.8,56.7,30.03,SW,225,0.0,0.0,96,0.00,,---,0.00,VWS V14.01,2013-05-08 13:17:00,
2013-05-08 08:22:00,58.2,57.1,30.03,SW,225,0.0,0.0,96,0.00,,---,0.00,VWS V14.01,2013-05-08 13:22:00,
2013-05-08 08:27:00,58.7,57.6,30.03,SW,225,0.0,0.0,96,0.00,,---,0.00,VWS V14.01,2013-05-08 13:27:00,
2013-05-08 08:32:00,58.9,57.8,30.03,SW,225,0.0,0.0,96,0.00,,---,0.00,VWS V14.01,2013-05-08 13:32:00,
2013-05-08 08:37:00,58.9,57.8,30.03,SW,225,0.0,0.0,96,0.00,,---,0.00,VWS V14.01,2013-05-08 13:37:00,
2013-05-08 08:42:00,58.9,57.8,30.03,SW,225,0.0,0.0,96,0.00,,---,0.00,VWS V14.01,2013-05-08 13:42:00,
2013-05-08 08:47:00,58.9,57.8,30.03,ENE,68,0.0,0.0,96,0.00,,---,0.00,VWS V14.01,2013-05-08 13:47:00,
2013-05-08 08:52:00,58.9,57.8,30.03,ENE,68,0.0,0.0,96,0.00,,---,0.00,VWS V14.01,2013-05-08 13:52:00,
2013-05-08 08:57:00,58.9,57.8,30.03,ENE,68,0.0,0.0,96,0.00,,---,0.00,VWS V14.01,2013-05-08 13:57:00,
2013-05-08 09:02:00,58.9,57.8,30.03,ESE,112,0.0,0.0,96,0.00,,---,0.00,VWS V14.01,2013-05-08 14:02:00,
2013-05-08 09:07:00,58.9,57.8,30.03,SE,135,0.0,0.0,96,0.00,,---,0.00,VWS V14.01,2013-05-08 14:07:00,
2013-05-08 09:12:00,58.9,57.8,30.03,ENE,68,0.0,0.0,96,0.00,,---,0.00,VWS V14.01,2013-05-08 14:12:00,
2013-05-08 09:17:00,58.9,57.8,30.03,SSW,202,0.0,0.0,96,0.00,,---,0.00,VWS V14.01,2013-05-08 14:17:00,
2013-05-08 09:22:00,58.9,57.8,30.03,ESE,112,0.0,0.0,96,0.00,,---,0.00,VWS V14.01,2013-05-08 14:22:00,
2013-05-08 09:27:00,58.9,57.8,30.03,SSE,158,2.9,2.9,96,0.00,,---,0.00,VWS V14.01,2013-05-08 14:27:00,
2013-05-08 09:32:00,58.9,57.8,30.06,South,180,0.0,0.0,96,0.00,,---,0.00,VWS V14.01,2013-05-08 14:32:00,
2013-05-08 09:37:00,69.5,63.5,30.06,SSW,202,0.0,0.0,81,0.00,,---,0.00,VWS V14.01,2013-05-08 14:37:00,
2013-05-08 09:42:00,69.9,62.4,30.06,South,180,0.0,0.0,77,0.00,,---,0.00,VWS V14.01,2013-05-08 14:42:00,
2013-05-08 09:47:00,70.4,62.9,30.06,SE,135,2.0,2.0,77,0.00,,---,0.00,VWS V14.01,2013-05-08 14:47:00,
2013-05-08 09:52:00,70.8,61.7,30.06,SSW,202,0.0,0.0,73,0.00,,---,0.00,VWS V14.01,2013-05-08 14:52:00,
2013-05-08 09:57:00,71.3,61.5,30.06,SSW,202,1.6,2.2,71,0.00,,---,0.00,VWS V14.01,2013-05-08 14:57:00,
2013-05-08 10:02:00,71.5,60.8,30.06,SSW,202,2.2,2.2,69,0.00,,---,0.00,VWS V14.01,2013-05-08 15:02:00,
2013-05-08 10:07:00,71.7,60.6,30.06,SSW,202,0.0,0.0,68,0.00,,---,0.00,VWS V14.01,2013-05-08 15:07:00,
2013-05-08 10:12:00,71.9,60.3,30.06,SSE,158,1.6,1.6,67,0.00,,---,0.00,VWS V14.01,2013-05-08 15:12:00,
2013-05-08 10:17:00,72.2,60.7,30.06,ESE,112,2.9,2.9,67,0.00,,---,0.00,VWS V14.01,2013-05-08 15:17:00,
2013-05-08 10:22:00,72.2,60.7,30.06,ENE,68,2.5,2.5,67,0.00,,---,0.00,VWS V14.01,2013-05-08 15:22:00,
2013-05-08 10:27:00,72.6,59.3,30.06,ENE,68,0.0,1.3,63,0.00,,---,0.00,VWS V14.01,2013-05-08 15:27:00,
2013-05-08 10:32:00,72.8,59.0,30.06,SSW,202,0.0,0.0,62,0.00,,---,0.00,VWS V14.01,2013-05-08 15:32:00,
2013-05-08 10:37:00,73.1,59.4,30.06,ENE,68,4.0,4.0,62,0.00,,---,0.00,VWS V14.01,2013-05-08 15:37:00,
2013-05-08 10:42:00,73.5,59.7,30.06,ENE,68,0.0,3.4,62,0.00,,---,0.00,VWS V14.01,2013-05-08 15:42:00,
2013-05-08 10:47:00,73.5,58.8,30.06,NNW,338,1.3,1.3,60,0.00,,---,0.00,VWS V14.01,2013-05-08 15:47:00,
2013-05-08 10:52:00,73.9,59.1,30.06,NNW,338,0.0,0.0,60,0.00,,---,0.00,VWS V14.01,2013-05-08 15:52:00,
2013-05-08 10:57:00,74.0,59.3,30.06,SSW,202,0.0,0.0,60,0.00,,---,0.00,VWS V14.01,2013-05-08 15:57:00,
2013-05-08 11:02:00,74.2,59.5,30.06,SSE,158,3.1,3.1,60,0.00,,---,0.00,VWS V14.01,2013-05-08 16:02:00,
2013-05-08 11:07:00,74.6,59.8,30.06,SW,225,0.0,1.3,60,0.00,,---,0.00,VWS V14.01,2013-05-08 16:07:00,
2013-05-08 11:12:00,74.6,58.4,30.06,SSE,158,4.0,4.0,57,0.00,,---,0.00,VWS V14.01,2013-05-08 16:12:00,
2013-05-08 11:17:00,74.8,57.5,30.06,SSW,202,2.0,2.9,55,0.00,,---,0.00,VWS V14.01,2013-05-08 16:17:00,
2013-05-08 11:22:00,74.9,58.2,30.06,North,0,0.0,0.0,56,0.00,,---,0.00,VWS V14.01,2013-05-08 16:22:00,
2013-05-08 11:27:00,75.1,58.4,30.06,SSE,158,2.7,2.9,56,0.00,,---,0.00,VWS V14.01,2013-05-08 16:27:00,
2013-05-08 11:32:00,75.5,58.2,30.06,SSE,158,0.9,3.1,55,0.00,,---,0.00,VWS V14.01,2013-05-08 16:32:00,
2013-05-08 11:37:00,75.7,58.4,30.06,SSE,158,2.5,2.9,55,0.00,,---,0.00,VWS V14.01,2013-05-08 16:37:00,
2013-05-08 11:42:00,75.7,55.2,30.06,ENE,68,1.1,2.5,49,0.00,,---,0.00,VWS V14.01,2013-05-08 16:42:00,
2013-05-08 11:47:00,75.8,57.5,30.06,SSE,158,2.0,2.0,53,0.00,,---,0.00,VWS V14.01,2013-05-08 16:47:00,
2013-05-08 11:52:00,75.7,55.7,30.06,NNW,338,0.0,2.5,50,0.00,,---,0.00,VWS V14.01,2013-05-08 16:52:00,
2013-05-08 11:57:00,75.5,55.6,30.06,NNW,338,1.6,1.6,50,0.00,,---,0.00,VWS V14.01,2013-05-08 16:57:00,
2013-05-08 12:02:00,75.5,56.1,30.06,WSW,248,0.0,0.0,51,0.00,,---,0.00,VWS V14.01,2013-05-08 17:02:00,
2013-05-08 12:07:00,74.9,55.6,30.06,NW,315,0.0,0.0,51,0.00,,---,0.00,VWS V14.01,2013-05-08 17:07:00,
2013-05-08 12:13:00,75.5,57.2,30.06,SSW,202,0.0,0.0,53,0.00,,---,0.00,VWS V14.01,2013-05-08 17:13:00,
2013-05-08 12:18:00,76.2,56.2,30.06,NNW,338,3.1,3.1,50,0.00,,---,0.00,VWS V14.01,2013-05-08 17:18:00,
2013-05-08 12:23:00,76.6,56.0,30.06,NNW,338,0.0,1.1,49,0.00,,---,0.00,VWS V14.01,2013-05-08 17:23:00,
2013-05-08 12:28:00,76.6,54.8,30.06,North,0,2.7,3.4,47,0.00,,---,0.00,VWS V14.01,2013-05-08 17:28:00,
2013-05-08 12:33:00,77.3,56.1,30.06,NE,45,0.0,0.0,48,0.00,,---,0.00,VWS V14.01,2013-05-08 17:33:00,
2013-05-08 12:38:00,77.8,56.6,30.06,ENE,68,2.2,2.2,48,0.00,,---,0.00,VWS V14.01,2013-05-08 17:38:00,
2013-05-08 12:43:00,77.8,55.4,30.06,WNW,292,2.0,2.9,46,0.00,,---,0.00,VWS V14.01,2013-05-08 17:43:00,
2013-05-08 12:48:00,77.1,55.3,30.06,North,0,0.0,0.0,47,0.00,,---,0.00,VWS V14.01,2013-05-08 17:48:00,
2013-05-08 12:53:00,76.0,54.4,30.06,NNW,338,0.0,0.0,47,0.00,,---,0.00,VWS V14.01,2013-05-08 17:53:00,
2013-05-08 12:58:00,75.7,55.2,30.06,NW,315,1.3,1.6,49,0.00,,---,0.00,VWS V14.01,2013-05-08 17:58:00,
2013-05-08 13:03:00,76.2,55.1,30.06,WNW,292,2.7,4.3,48,0.00,,---,0.00,VWS V14.01,2013-05-08 18:03:00,
2013-05-08 13:08:00,75.5,54.4,30.06,West,270,0.0,0.0,48,0.00,,---,0.00,VWS V14.01,2013-05-08 18:08:00,
2013-05-08 13:13:00,75.3,54.8,30.06,WNW,292,0.0,0.0,49,0.00,,---,0.00,VWS V14.01,2013-05-08 18:13:00,
2013-05-08 13:18:00,76.4,55.3,30.06,SW,225,2.5,2.5,48,0.00,,---,0.00,VWS V14.01,2013-05-08 18:18:00,
2013-05-08 13:23:00,76.2,54.5,30.06,WNW,292,1.3,1.6,47,0.00,,---,0.00,VWS V14.01,2013-05-08 18:23:00,
2013-05-08 13:28:00,76.2,54.5,30.06,NNW,338,1.1,2.0,47,0.00,,---,0.00,VWS V14.01,2013-05-08 18:28:00,
2013-05-08 13:33:00,77.1,55.3,30.06,ESE,112,0.0,0.0,47,0.00,,---,0.00,VWS V14.01,2013-05-08 18:33:00,
2013-05-08 13:38:00,77.6,55.8,30.06,NE,45,1.3,2.2,47,0.00,,---,0.00,VWS V14.01,2013-05-08 18:38:00,
2013-05-08 13:43:00,77.3,53.1,30.06,NW,315,2.9,2.9,43,0.00,,---,0.00,VWS V14.01,2013-05-08 18:43:00,
2013-05-08 13:48:00,77.6,54.6,30.06,NE,45,0.0,0.0,45,0.00,,---,0.00,VWS V14.01,2013-05-08 18:48:00,
2013-05-08 13:53:00,76.9,54.6,30.06,ENE,68,0.0,0.0,46,0.00,,---,0.00,VWS V14.01,2013-05-08 18:53:00,
2013-05-08 13:58:00,76.2,54.5,30.06,ENE,68,0.0,0.0,47,0.00,,---,0.00,VWS V14.01,2013-05-08 18:58:00,
2013-05-08 14:03:00,75.5,56.1,30.06,ENE,68,0.0,0.0,51,0.00,,---,0.00,VWS V14.01,2013-05-08 19:03:00,
2013-05-08 14:08:00,76.0,57.1,30.06,SW,225,0.0,0.0,52,0.00,,---,0.00,VWS V14.01,2013-05-08 19:08:00,
2013-05-08 14:13:00,77.8,58.3,30.03,WSW,248,0.0,0.0,51,0.00,,---,0.00,VWS V14.01,2013-05-08 19:13:00,
2013-05-08 14:18:00,78.5,55.5,30.03,NE,45,0.0,3.4,45,0.00,,---,0.00,VWS V14.01,2013-05-08 19:18:00,
2013-05-08 14:23:00,78.9,55.8,30.03,SE,135,1.3,2.2,45,0.00,,---,0.00,VWS V14.01,2013-05-08 19:23:00,
2013-05-08 14:28:00,79.3,54.2,30.03,NNW,338,2.7,2.7,42,0.00,,---,0.00,VWS V14.01,2013-05-08 19:28:00,
2013-05-08 14:33:00,79.4,55.0,30.03,SSW,202,0.0,0.0,43,0.00,,---,0.00,VWS V14.01,2013-05-08 19:33:00,
2013-05-08 14:38:00,80.2,56.3,30.03,SE,135,2.0,2.7,44,0.00,,---,0.00,VWS V14.01,2013-05-08 19:38:00,
2013-05-08 14:43:00,80.7,56.2,30.03,NNW,338,0.0,0.0,43,0.00,,---,0.00,VWS V14.01,2013-05-08 19:43:00,
2013-05-08 14:48:00,80.9,56.3,30.03,West,270,1.6,1.6,43,0.00,,---,0.00,VWS V14.01,2013-05-08 19:48:00,
2013-05-08 14:53:00,81.2,57.3,30.03,SSW,202,0.0,0.0,44,0.00,,---,0.00,VWS V14.01,2013-05-08 19:53:00,
2013-05-08 14:58:00,81.6,57.0,30.03,SSW,202,1.6,1.6,43,0.00,,---,0.00,VWS V14.01,2013-05-08 19:58:00,
2013-05-08 15:03:00,80.7,56.2,30.03,WSW,248,0.0,0.0,43,0.00,,---,0.00,VWS V14.01,2013-05-08 20:03:00,
2013-05-08 15:08:00,79.3,56.1,30.03,WSW,248,0.0,0.0,45,0.00,,---,0.00,VWS V14.01,2013-05-08 20:08:00,
2013-05-08 15:13:00,78.2,56.9,30.03,SW,225,0.0,0.0,48,0.00,,---,0.00,VWS V14.01,2013-05-08 20:13:00,
2013-05-08 15:18:00,77.3,56.7,30.03,SSW,202,0.0,0.0,49,0.00,,---,0.00,VWS V14.01,2013-05-08 20:18:00,
2013-05-08 15:23:00,76.6,57.1,30.03,SW,225,0.0,0.0,51,0.00,,---,0.00,VWS V14.01,2013-05-08 20:23:00,
2013-05-08 15:28:00,75.8,57.0,30.03,WSW,248,0.0,0.0,52,0.00,,---,0.00,VWS V14.01,2013-05-08 20:28:00,
2013-05-08 15:33:00,75.5,57.2,30.03,WSW,248,0.0,0.0,53,0.00,,---,0.00,VWS V14.01,2013-05-08 20:33:00,
2013-05-08 15:38:00,76.4,58.5,30.03,ENE,68,0.0,0.0,54,0.00,,---,0.00,VWS V14.01,2013-05-08 20:38:00,
2013-05-08 15:43:00,77.3,56.1,30.03,NNW,338,0.0,0.0,48,0.00,,---,0.00,VWS V14.01,2013-05-08 20:43:00,
2013-05-08 15:48:00,78.0,55.6,30.03,NNW,338,2.7,2.7,46,0.00,,---,0.00,VWS V14.01,2013-05-08 20:48:00,
2013-05-08 15:53:00,78.7,55.6,30.03,South,180,0.0,0.0,45,0.00,,---,0.00,VWS V14.01,2013-05-08 20:53:00,
2013-05-08 15:58:00,78.7,55.6,30.03,SSW,202,0.0,0.0,45,0.00,,---,0.00,VWS V14.01,2013-05-08 20:58:00,
2013-05-08 16:03:00,78.2,54.5,30.03,North,0,2.7,2.7,44,0.00,,---,0.00,VWS V14.01,2013-05-08 21:03:00,
2013-05-08 16:08:00,78.5,53.6,30.03,North,0,0.0,0.0,42,0.00,,---,0.00,VWS V14.01,2013-05-08 21:08:00,
2013-05-08 16:13:00,79.1,54.0,30.03,NNE,22,0.0,0.0,42,0.00,,---,0.00,VWS V14.01,2013-05-08 21:13:00,
2013-05-08 16:18:00,79.4,55.0,30.03,West,270,0.9,1.1,43,0.00,,---,0.00,VWS V14.01,2013-05-08 21:18:00,
2013-05-08 16:23:00,79.6,53.9,30.03,West,270,0.0,0.0,41,0.00,,---,0.00,VWS V14.01,2013-05-08 21:23:00,
2013-05-08 16:28:00,79.6,55.2,30.00,West,270,0.0,0.0,43,0.00,,---,0.00,VWS V14.01,2013-05-08 21:28:00,
2013-05-08 16:33:00,79.3,54.8,30.00,NNW,338,0.0,1.3,43,0.00,,---,0.00,VWS V14.01,2013-05-08 21:33:00,
2013-05-08 16:38:00,78.4,54.0,30.00,WNW,292,0.0,0.0,43,0.00,,---,0.00,VWS V14.01,2013-05-08 21:38:00,
2013-05-08 16:43:00,77.8,54.8,30.03,WNW,292,0.0,0.0,45,0.00,,---,0.00,VWS V14.01,2013-05-08 21:43:00,
2013-05-08 16:48:00,78.2,54.5,30.03,WNW,292,0.0,0.0,44,0.00,,---,0.00,VWS V14.01,2013-05-08 21:48:00,
2013-05-08 16:53:00,78.5,55.5,30.03,WNW,292,0.0,0.0,45,0.00,,---,0.00,VWS V14.01,2013-05-08 21:53:00,
2013-05-08 16:58:00,78.7,55.0,30.03,North,0,2.5,2.5,44,0.00,,---,0.00,VWS V14.01,2013-05-08 21:58:00,
2013-05-08 17:03:00,79.1,54.7,30.03,SSW,202,0.0,1.1,43,0.00,,---,0.00,VWS V14.01,2013-05-08 22:03:00,
2013-05-08 17:08:00,78.4,55.9,30.03,WSW,248,0.0,0.0,46,0.00,,---,0.00,VWS V14.01,2013-05-08 22:08:00,
2013-05-08 17:13:00,77.5,56.2,30.00,WSW,248,0.0,0.0,48,0.00,,---,0.00,VWS V14.01,2013-05-08 22:13:00,
2013-05-08 17:18:00,76.6,56.0,30.00,WSW,248,0.0,0.0,49,0.00,,---,0.00,VWS V14.01,2013-05-08 22:18:00,
2013-05-08 17:23:00,76.4,56.4,30.00,WSW,248,0.0,0.0,50,0.00,,---,0.00,VWS V14.01,2013-05-08 22:23:00,
2013-05-08 17:28:00,76.2,56.8,30.00,SSW,202,0.0,0.0,51,0.00,,---,0.00,VWS V14.01,2013-05-08 22:28:00,
2013-05-08 17:34:00,76.2,57.3,30.00,SSW,202,0.0,0.0,52,0.00,,---,0.00,VWS V14.01,2013-05-08 22:34:00,
2013-05-08 17:39:00,76.0,57.7,30.00,SE,135,0.0,0.0,53,0.00,,---,0.00,VWS V14.01,2013-05-08 22:39:00,
2013-05-08 17:44:00,75.8,58.0,30.00,SE,135,0.0,0.0,54,0.00,,---,0.00,VWS V14.01,2013-05-08 22:44:00,
2013-05-08 17:49:00,75.7,57.9,30.00,SSE,158,0.0,0.0,54,0.00,,---,0.00,VWS V14.01,2013-05-08 22:49:00,
2013-05-08 17:54:00,75.7,57.9,30.00,SSE,158,0.0,0.0,54,0.00,,---,0.00,VWS V14.01,2013-05-08 22:54:00,
2013-05-08 17:59:00,75.3,57.5,30.00,WNW,292,0.0,0.0,54,0.00,,---,0.00,VWS V14.01,2013-05-08 22:59:00,
2013-05-08 18:04:00,75.3,57.5,30.00,WNW,292,0.0,0.0,54,0.00,,---,0.00,VWS V14.01,2013-05-08 23:04:00,
2013-05-08 18:09:00,75.1,58.4,30.00,WSW,248,0.0,0.0,56,0.00,,---,0.00,VWS V14.01,2013-05-08 23:09:00,
2013-05-08 18:14:00,74.9,58.2,30.00,WSW,248,0.0,0.0,56,0.00,,---,0.00,VWS V14.01,2013-05-08 23:14:00,
2013-05-08 18:19:00,74.8,57.5,30.00,WSW,248,0.0,0.0,55,0.00,,---,0.00,VWS V14.01,2013-05-08 23:19:00,
2013-05-08 18:24:00,74.6,57.4,30.00,WSW,248,0.0,0.0,55,0.00,,---,0.00,VWS V14.01,2013-05-08 23:24:00,
2013-05-08 18:29:00,74.4,57.7,30.03,WSW,248,0.0,0.0,56,0.00,,---,0.00,VWS V14.01,2013-05-08 23:29:00,
2013-05-08 18:34:00,74.0,57.4,30.03,WSW,248,0.0,0.0,56,0.00,,---,0.00,VWS V14.01,2013-05-08 23:34:00,
2013-05-08 18:39:00,73.9,57.2,30.03,WSW,248,0.0,0.0,56,0.00,,---,0.00,VWS V14.01,2013-05-08 23:39:00,
2013-05-08 18:44:00,73.5,57.3,30.00,WSW,248,0.0,0.0,57,0.00,,---,0.00,VWS V14.01,2013-05-08 23:44:00,
2013-05-08 18:49:00,73.3,57.2,30.00,WSW,248,0.0,0.0,57,0.00,,---,0.00,VWS V14.01,2013-05-08 23:49:00,
2013-05-08 18:54:00,73.0,57.3,30.00,WSW,248,0.0,0.0,58,0.00,,---,0.00,VWS V14.01,2013-05-08 23:54:00,
2013-05-08 18:59:00,72.6,57.5,30.00,WSW,248,0.0,0.0,59,0.00,,---,0.00,VWS V14.01,2013-05-08 23:59:00,
2013-05-08 19:04:00,72.4,58.2,30.00,WSW,248,0.0,0.0,61,0.00,,---,0.00,VWS V14.01,2013-05-09 00:04:00,
2013-05-08 19:09:00,72.1,58.8,30.00,WSW,248,0.0,0.0,63,0.00,,---,0.00,VWS V14.01,2013-05-09 00:09:00,
2013-05-08 19:14:00,71.7,58.9,30.00,WSW,248,0.0,0.0,64,0.00,,---,0.00,VWS V14.01,2013-05-09 00:14:00,
2013-05-08 19:19:00,71.3,59.4,30.00,WSW,248,0.0,0.0,66,0.00,,---,0.00,VWS V14.01,2013-05-09 00:19:00,
2013-05-08 19:24:00,71.0,59.5,30.00,WSW,248,0.0,0.0,67,0.00,,---,0.00,VWS V14.01,2013-05-09 00:24:00,
2013-05-08 19:29:00,70.6,59.1,30.00,WSW,248,0.0,0.0,67,0.00,,---,0.00,VWS V14.01,2013-05-09 00:29:00,
2013-05-08 19:34:00,70.3,59.2,30.00,WSW,248,0.0,0.0,68,0.00,,---,0.00,VWS V14.01,2013-05-09 00:34:00,
2013-05-08 19:39:00,69.9,59.3,30.00,WSW,248,0.0,0.0,69,0.00,,---,0.00,VWS V14.01,2013-05-09 00:39:00,
2013-05-08 19:44:00,69.5,59.3,30.00,WSW,248,0.0,0.0,70,0.00,,---,0.00,VWS V14.01,2013-05-09 00:44:00,
2013-05-08 19:49:00,69.0,59.2,30.00,WSW,248,0.0,0.0,71,0.00,,---,0.00,VWS V14.01,2013-05-09 00:49:00,
2013-05-08 19:54:00,68.8,59.4,30.00,WSW,248,0.0,0.0,72,0.00,,---,0.00,VWS V14.01,2013-05-09 00:54:00,
2013-05-08 19:59:00,68.5,59.5,30.00,WSW,248,0.0,0.0,73,0.00,,---,0.00,VWS V14.01,2013-05-09 00:59:00,
2013-05-08 20:04:00,68.1,59.5,30.00,WSW,248,0.0,0.0,74,0.00,,---,0.00,VWS V14.01,2013-05-09 01:04:00,
2013-05-08 20:09:00,67.9,59.7,30.00,WSW,248,0.0,0.0,75,0.00,,---,0.00,VWS V14.01,2013-05-09 01:09:00,
2013-05-08 20:14:00,67.7,59.5,30.03,WSW,248,0.0,0.0,75,0.00,,---,0.00,VWS V14.01,2013-05-09 01:14:00,
2013-05-08 20:19:00,67.4,59.6,30.03,WSW,248,0.0,0.0,76,0.00,,---,0.00,VWS V14.01,2013-05-09 01:19:00,
2013-05-08 20:24:00,67.0,59.9,30.03,WSW,248,0.0,0.0,78,0.00,,---,0.00,VWS V14.01,2013-05-09 01:24:00,
2013-05-08 20:29:00,66.8,59.8,30.03,WSW,248,0.0,0.0,78,0.00,,---,0.00,VWS V14.01,2013-05-09 01:29:00,
2013-05-08 20:34:00,66.5,59.8,30.03,WSW,248,0.0,0.0,79,0.00,,---,0.00,VWS V14.01,2013-05-09 01:34:00,
2013-05-08 20:39:00,66.3,59.6,30.03,WSW,248,0.0,0.0,79,0.00,,---,0.00,VWS V14.01,2013-05-09 01:39:00,
2013-05-08 20:44:00,66.1,59.8,30.03,WSW,248,0.0,0.0,80,0.00,,---,0.00,VWS V14.01,2013-05-09 01:44:00,
2013-05-08 20:49:00,65.8,59.4,30.03,WSW,248,0.0,0.0,80,0.00,,---,0.00,VWS V14.01,2013-05-09 01:49:00,
2013-05-08 20:54:00,65.6,59.6,30.03,WSW,248,0.0,0.0,81,0.00,,---,0.00,VWS V14.01,2013-05-09 01:54:00,
2013-05-08 20:59:00,65.4,59.4,30.03,WSW,248,0.0,0.0,81,0.00,,---,0.00,VWS V14.01,2013-05-09 01:59:00,
2013-05-08 21:04:00,65.0,59.4,30.03,WSW,248,0.0,0.0,82,0.00,,---,0.00,VWS V14.01,2013-05-09 02:04:00,
2013-05-08 21:09:00,64.9,59.6,30.03,WSW,248,0.0,0.0,83,0.00,,---,0.00,VWS V14.01,2013-05-09 02:09:00,
2013-05-08 21:14:00,64.9,59.6,30.03,WSW,248,0.0,0.0,83,0.00,,---,0.00,VWS V14.01,2013-05-09 02:14:00,
2013-05-08 21:19:00,64.5,59.2,30.03,WSW,248,0.0,0.0,83,0.00,,---,0.00,VWS V14.01,2013-05-09 02:19:00,
2013-05-08 21:24:00,64.5,59.6,30.03,WSW,248,0.0,0.0,84,0.00,,---,0.00,VWS V14.01,2013-05-09 02:24:00,
2013-05-08 21:29:00,64.3,59.4,30.03,WSW,248,0.0,0.0,84,0.00,,---,0.00,VWS V14.01,2013-05-09 02:29:00,
2013-05-08 21:34:00,64.1,59.5,30.03,WSW,248,0.0,0.0,85,0.00,,---,0.00,VWS V14.01,2013-05-09 02:34:00,
2013-05-08 21:39:00,64.0,59.4,30.03,WSW,248,0.0,0.0,85,0.00,,---,0.00,VWS V14.01,2013-05-09 02:39:00,
2013-05-08 21:44:00,63.8,59.2,30.03,WSW,248,0.0,0.0,85,0.00,,---,0.00,VWS V14.01,2013-05-09 02:44:00,
2013-05-08 21:49:00,63.6,59.3,30.03,WSW,248,0.0,0.0,86,0.00,,---,0.00,VWS V14.01,2013-05-09 02:49:00,
2013-05-08 21:54:00,63.6,59.3,30.03,WSW,248,0.0,0.0,86,0.00,,---,0.00,VWS V14.01,2013-05-09 02:54:00,
2013-05-08 21:59:00,63.4,59.2,30.03,WSW,248,0.0,0.0,86,0.00,,---,0.00,VWS V14.01,2013-05-09 02:59:00,
2013-05-08 22:04:00,63.2,59.3,30.03,WSW,248,0.0,0.0,87,0.00,,---,0.00,VWS V14.01,2013-05-09 03:04:00,
2013-05-08 22:09:00,63.2,59.3,30.03,WSW,248,0.0,0.0,87,0.00,,---,0.00,VWS V14.01,2013-05-09 03:09:00,
2013-05-08 22:14:00,63.1,59.1,30.03,WSW,248,0.0,0.0,87,0.00,,---,0.00,VWS V14.01,2013-05-09 03:14:00,
2013-05-08 22:19:00,62.9,59.0,30.03,WSW,248,0.0,0.0,87,0.00,,---,0.00,VWS V14.01,2013-05-09 03:19:00,
2013-05-08 22:24:00,62.7,59.1,30.03,SSW,202,0.0,0.0,88,0.00,,---,0.00,VWS V14.01,2013-05-09 03:24:00,
2013-05-08 22:29:00,62.7,59.1,30.03,SSW,202,0.0,0.0,88,0.00,,---,0.00,VWS V14.01,2013-05-09 03:29:00,
2013-05-08 22:34:00,62.5,59.2,30.03,SSW,202,0.0,0.0,89,0.00,,---,0.00,VWS V14.01,2013-05-09 03:34:00,
2013-05-08 22:39:00,62.3,59.1,30.03,SSW,202,0.0,0.0,89,0.00,,---,0.00,VWS V14.01,2013-05-09 03:39:00,
2013-05-08 22:44:00,62.3,59.1,30.03,SSW,202,0.0,0.0,89,0.00,,---,0.00,VWS V14.01,2013-05-09 03:44:00,
2013-05-08 22:49:00,62.2,58.9,30.03,SSW,202,0.0,0.0,89,0.00,,---,0.00,VWS V14.01,2013-05-09 03:49:00,
2013-05-08 22:54:00,62.0,58.7,30.03,SSW,202,0.0,0.0,89,0.00,,---,0.00,VWS V14.01,2013-05-09 03:54:00,
2013-05-08 22:59:00,61.8,58.2,30.03,WNW,292,0.0,0.0,88,0.00,,---,0.00,VWS V14.01,2013-05-09 03:59:00,
2013-05-08 23:01:00,61.8,58.5,30.03,WNW,292,0.0,0.0,89,0.00,,---,0.00,VWS V14.01,2013-05-09 04:01:00,
2013-05-08 23:06:00,61.6,58.7,30.03,WSW,248,0.0,0.0,90,0.00,,---,0.00,VWS V14.01,2013-05-09 04:06:00,
2013-05-08 23:11:00,61.6,58.7,30.03,WSW,248,0.0,0.0,90,0.00,,---,0.00,VWS V14.01,2013-05-09 04:11:00,
2013-05-08 23:16:00,61.6,58.7,30.03,WSW,248,0.0,0.0,90,0.00,,---,0.00,VWS V14.01,2013-05-09 04:16:00,
2013-05-08 23:21:00,61.6,58.7,30.03,WSW,248,0.0,0.0,90,0.00,,---,0.00,VWS V14.01,2013-05-09 04:21:00,
2013-05-08 23:26:00,61.4,58.5,30.03,WSW,248,0.0,0.0,90,0.00,,---,0.00,VWS V14.01,2013-05-09 04:26:00,
2013-05-08 23:31:00,61.3,58.3,30.03,WSW,248,0.0,0.0,90,0.00,,---,0.00,VWS V14.01,2013-05-09 04:31:00,
2013-05-08 23:36:00,61.3,58.3,30.03,NNE,22,0.0,0.0,90,0.00,,---,0.00,VWS V14.01,2013-05-09 04:36:00,
2013-05-08 23:41:00,61.1,58.1,30.03,NNE,22,0.0,0.0,90,0.00,,---,0.00,VWS V14.01,2013-05-09 04:41:00,
2013-05-08 23:46:00,61.1,58.1,30.03,NNE,22,0.0,0.0,90,0.00,,---,0.00,VWS V14.01,2013-05-09 04:46:00,
2013-05-08 23:51:00,60.9,58.0,30.03,North,0,0.0,0.0,90,0.00,,---,0.00,VWS V14.01,2013-05-09 04:51:00,
2013-05-08 23:57:00,60.9,58.3,30.03,North,0,0.0,0.0,91,0.00,,---,0.00,VWS V14.01,2013-05-09 04:57:00,